Location: Bathurst
(33.4193°S, 149.5775°E)
Time: 19:18:30
(UTC+10:00)

Courier 1B - Visible Passes

Search period start: 15 June 2021 00:00
Search period end: 25 June 2021 00:00
Orbit: 962 x 1209 km, 28.3° (Epoch: 15 June)

Date Brightness Start Highest point End Pass type
(mag) Time Alt. Az. Time Alt. Az. Time Alt. Az.
15 Jun 10.2 02:50:42 12° E 02:50:42 12° E 02:51:15 10° E visible
15 Jun 7.9 04:37:36 55° NNW 04:38:20 58° N 04:45:33 10° ENE visible
15 Jun 8.7 06:25:35 10° W 06:32:14 41° NNW 06:39:16 10° NE visible
16 Jun 8.8 03:47:15 37° ENE 03:47:15 37° ENE 03:51:36 10° ENE visible
16 Jun 8.4 05:34:08 22° WNW 05:38:27 47° NNW 05:45:32 10° ENE visible
17 Jun 10.1 02:56:53 13° E 02:56:53 13° E 02:57:39 10° E visible
17 Jun 8.0 04:43:46 49° NW 04:44:41 51° N 04:51:43 10° ENE visible
17 Jun 9.1 06:32:25 10° W 06:38:25 29° NNW 06:44:44 10° NE visible
18 Jun 8.8 03:53:25 37° NE 03:53:25 37° NE 03:57:51 10° ENE visible
18 Jun 8.7 05:40:18 18° WNW 05:44:41 35° NNW 05:51:15 10° NE visible
19 Jun 10.1 03:03:03 14° ENE 03:03:03 14° ENE 03:03:59 10° ENE visible
19 Jun 8.3 04:49:57 39° NW 04:50:58 41° NNW 04:57:37 10° NE visible
20 Jun 8.8 03:59:36 34° NNE 03:59:36 34° NNE 04:03:56 10° ENE visible
20 Jun 9.1 05:46:30 13° WNW 05:50:51 24° NNW 05:56:24 10° NNE visible
21 Jun 10.0 03:09:16 14° ENE 03:09:16 14° ENE 03:10:11 10° ENE visible
21 Jun 8.7 04:56:10 28° NW 04:57:10 29° NNW 05:03:08 10° NE visible
22 Jun 9.0 04:05:51 28° NNE 04:05:51 28° NNE 04:09:42 10° NE visible
22 Jun 9.6 05:53:37 10° WNW 05:56:58 14° NNW 06:00:25 10° N visible
23 Jun 10.1 03:15:32 13° NE 03:15:32 13° NE 03:16:09 10° NE visible
23 Jun 9.2 05:02:26 18° NW 05:03:20 18° NNW 05:07:54 10° NNE visible
24 Jun 9.4 04:12:09 19° N 04:12:09 19° N 04:14:57 10° NNE visible
24 Jun 9.8 19:39:16 10° N 19:39:54 11° NNE 19:39:54 11° NNE visible
